KG1ZR Weather Reports


time (UTC)temp
F
wind
direction
speed
knots
gust
knots
rain 1hr
in
rain 24hr
in
rain mn
in
humidity
%
barometer
mb
20260507203429 60 293 3.5 7.8 0.00 0.28 0.07 43 1002.0
20260507202429 59 272 3.5 11.3 0.00 0.29 0.07 45 1002.0
20260507201429 60 250 4.3 11.3 0.00 0.29 0.07 40 1001.9
20260507200429 59 245 3.5 10.4 0.00 0.30 0.07 43 1001.8
20260507195430 60 248 5.2 12.2 0.00 0.31 0.07 41 1002.0
20260507194429 60 219 5.2 11.3 0.00 0.33 0.07 45 1002.1
20260507193911 60 288 4.3 12.2 0.00 0.34 0.07 46 1002.0
20260507192429 60 252 5.2 13.9 0.00 0.35 0.07 48 1002.0
20260507191428 60 275 5.2 13.9 0.00 0.36 0.07 55 1002.0
20260507190429 60 247 4.3 9.6 0.00 0.42 0.07 52 1002.1
20260507185429 58 20 3.5 8.7 0.00 0.44 0.07 57 1002.1
20260507184429 58 308 3.5 7.8 0.00 0.45 0.07 56 1002.2
20260507183431 59 355 3.5 10.4 0.00 0.46 0.07 56 1002.1
20260507182429 60 302 3.5 10.4 0.00 0.47 0.07 54 1002.1
20260507181429 61 326 3.5 11.3 0.00 0.47 0.07 58 1002.2
20260507180910 59 290 4.3 11.3 0.00 0.47 0.07 57 1002.4
20260507175429 60 342 4.3 11.3 0.00 0.47 0.07 53 1002.2
20260507174429 60 211 3.5 11.3 0.00 0.47 0.07 52 1002.4
20260507173429 60 296 3.5 9.6 0.00 0.47 0.07 55 1002.4
20260507172429 59 254 4.3 9.6 0.00 0.47 0.07 56 1002.5
20260507171912 58 254 4.3 8.7 0.00 0.47 0.07 57 1002.6
20260507170429 58 254 4.3 8.7 0.00 0.47 0.07 56 1002.8
20260507165429 58 288 3.5 10.4 0.00 0.47 0.07 60 1002.8
20260507164428 58 271 5.2 12.2 0.00 0.47 0.07 60 1002.9
20260507163428 58 246 3.5 8.7 0.00 0.47 0.07 58 1003.0
20260507162429 58 317 3.5 8.7 0.00 0.47 0.07 58 1003.1
20260507161429 58 259 2.6 7.0 0.00 0.47 0.07 59 1003.2
20260507160903 58 213 2.6 6.1 0.00 0.47 0.07 56 1003.2
20260507155429 58 187 3.5 7.8 0.00 0.47 0.07 55 1003.5
20260507154429 58 325 3.5 7.8 0.00 0.47 0.07 55 1003.5
20260507153428 58 333 2.6 7.0 0.00 0.47 0.07 64 1003.5
20260507152429 57 221 3.5 7.8 0.00 0.47 0.07 62 1003.6
20260507151429 57 180 2.6 6.1 0.00 0.47 0.07 65 1003.7
20260507150429 56 249 2.6 8.7 0.00 0.47 0.07 66 1003.8
20260507145428 56 207 2.6 5.2 0.00 0.47 0.07 65 1003.8
20260507144429 56 300 2.6 7.8 0.00 0.47 0.07 71 1003.9
20260507143429 57 180 2.6 7.8 0.00 0.47 0.07 66 1004.0
20260507142430 56 296 1.7 7.0 0.00 0.47 0.07 72 1004.2
20260507141429 55 238 2.6 7.0 0.00 0.47 0.07 69 1004.2
20260507140428 56 281 1.7 7.0 0.00 0.47 0.07 71 1004.3
20260507135905 55 292 1.7 7.0 0.00 0.47 0.07 72 1004.4
20260507134429 53 5 2.6 7.0 0.00 0.47 0.07 72 1004.5
20260507133915 53 304 1.7 6.1 0.00 0.47 0.07 75 1004.3
20260507132428 52 279 2.6 6.1 0.00 0.47 0.07 75 1004.5
20260507131910 52 244 2.6 6.1 0.00 0.47 0.07 74 1004.4
20260507130429 52 349 1.7 7.0 0.00 0.47 0.07 77 1004.5
20260507125429 51 302 2.6 7.0 0.00 0.47 0.07 78 1004.7
20260507124429 51 290 2.6 7.8 0.00 0.47 0.07 78 1004.8
20260507123914 50 325 3.5 7.8 0.00 0.47 0.07 78 1004.7
20260507122428 49 269 2.6 7.8 0.00 0.47 0.07 76 1004.8
20260507121429 49 274 1.7 4.3 0.00 0.47 0.07 73 1004.7
20260507120429 49 310 1.7 4.3 0.00 0.47 0.07 70 1004.7
20260507115429 48 315 1.7 4.3 0.00 0.47 0.07 68 1004.9
20260507114428 47 285 1.7 4.3 0.00 0.47 0.07 64 1005.1
20260507113429 47 215 0.0 3.5 0.00 0.47 0.07 60 1005.0
20260507112429 47 309 0.9 3.5 0.00 0.47 0.07 60 1004.9
20260507111429 46 194 0.9 3.5 0.00 0.47 0.07 60 1005.2
20260507110429 45 249 0.0 1.7 0.00 0.47 0.07 60 1005.2
20260507105429 45 217 0.9 2.6 0.00 0.47 0.07 60 1005.0
20260507104429 45 279 0.9 2.6 0.00 0.47 0.07 60 1004.9
20260507103429 44 225 0.0 2.6 0.00 0.47 0.07 61 1005.1
20260507102428 43 225 0.9 2.6 0.00 0.47 0.07 61 1005.1
20260507101429 43 325 0.0 0.0 0.00 0.47 0.07 61 1005.1
20260507100430 43 325 0.0 1.7 0.00 0.47 0.07 61 1004.5
20260507095429 43 325 0.9 1.7 0.00 0.47 0.07 61 1004.3
20260507094428 43 244 0.0 0.9 0.00 0.47 0.07 61 1004.3
20260507093429 44 244 0.0 1.7 0.00 0.47 0.07 61 1004.4
20260507092429 44 244 0.0 1.7 0.00 0.47 0.07 61 1004.5
20260507091428 44 244 0.0 1.7 0.01 0.47 0.07 61 1004.4
20260507090429 44 244 0.0 1.7 0.01 0.47 0.07 61 1004.7
20260507085429 44 244 0.0 1.7 0.01 0.47 0.07 61 1004.9
20260507084428 45 257 0.9 2.6 0.01 0.47 0.07 61 1004.8
20260507083429 45 281 0.9 2.6 0.01 0.47 0.07 61 1004.3
20260507083352 45 320 0.9 2.6 0.01 0.47 0.07 60 1004.1
20260507081429 46 302 0.0 2.6 0.00 0.46 0.06 60 1004.2
20260507080429 46 302 1.7 4.3 0.00 0.46 0.06 60 1004.1
20260507075427 47 316 1.7 4.3 0.00 0.46 0.06 60 1004.2
20260507074427 47 331 1.7 4.3 0.00 0.46 0.06 59 1004.3
20260507073426 48 284 0.9 2.6 0.00 0.46 0.06 59 1004.4
20260507072424 48 290 0.0 1.7 0.00 0.46 0.06 59 1004.2
20260507071423 48 290 0.0 1.7 0.00 0.46 0.06 59 1004.0
20260507070901 48 290 0.0 0.9 0.00 0.46 0.06 59 1004.0
20260507065420 48 290 0.0 1.7 0.00 0.46 0.06 59 1003.7
20260507064421 49 284 0.9 1.7 0.00 0.46 0.06 59 1003.6
20260507063421 49 284 0.0 1.7 0.00 0.46 0.06 59 1003.5
20260507062421 49 284 0.0 1.7 0.00 0.46 0.06 58 1003.4
20260507061421 49 284 0.0 2.6 0.00 0.46 0.06 58 1003.5
20260507060419 49 0 0.0 1.7 0.01 0.46 0.06 58 1003.2
20260507055418 49 0 0.0 1.7 0.01 0.46 0.06 58 1003.1
20260507054419 49 340 0.0 1.7 0.02 0.46 0.06 58 1003.0
20260507053419 50 311 0.0 3.5 0.04 0.46 0.06 58 1003.1
20260507052416 50 315 0.9 3.5 0.05 0.46 0.06 58 1003.4
20260507051417 51 331 0.9 4.3 0.05 0.46 0.05 58 1003.4
20260507050415 51 313 1.7 6.1 0.05 0.45 0.05 57 1003.4
20260507045856 51 279 2.6 8.7 0.07 0.45 0.05 57 1003.6
20260507044406 51 335 2.6 8.7 0.10 0.44 0.04 57 1003.3
20260507043407 52 302 3.5 8.7 0.08 0.42 0.02 57 1003.5
20260507042407 52 279 1.7 5.2 0.09 0.41 0.01 57 1003.2
20260507041407 52 254 1.7 5.2 0.10 0.41 0.01 57 1003.2
20260507040407 53 284 2.6 9.6 0.09 0.40 0.00 56 1003.2
20260507035405 53 347 3.5 9.6 0.07 0.38 0.38 56 1003.1
20260507034405 54 279 2.6 7.0 0.04 0.34 0.34 56 1003.1
20260507033406 54 336 2.6 7.8 0.04 0.34 0.34 56 1002.9
20260507032406 54 272 1.7 5.2 0.02 0.32 0.32 56 1002.8
20260507031403 54 205 1.7 5.2 0.02 0.31 0.31 56 1002.7
20260507030404 54 222 1.7 7.0 0.03 0.31 0.31 56 1002.3
20260507025403 53 229 2.6 7.0 0.03 0.31 0.31 56 1002.4
20260507024404 53 208 1.7 7.0 0.02 0.30 0.30 56 1002.6
20260507023403 53 237 1.7 7.0 0.03 0.30 0.30 56 1002.6
20260507022404 53 192 2.6 9.6 0.03 0.30 0.30 56 1002.6
20260507021404 53 186 4.3 11.3 0.02 0.29 0.29 56 1002.5
20260507020404 53 189 4.3 11.3 0.01 0.28 0.28 56 1002.6
20260507015404 53 184 4.3 7.8 0.01 0.28 0.28 56 1002.5
20260507014403 54 196 5.2 9.6 0.01 0.28 0.28 56 1002.6
20260507013403 54 142 5.2 10.4 0.00 0.27 0.27 56 1002.6
20260507012403 54 201 4.3 11.3 0.00 0.27 0.27 56 1002.6
20260507011404 54 235 5.2 11.3 0.00 0.27 0.27 56 1002.8
20260507010401 54 157 6.1 13.9 0.00 0.27 0.27 56 1002.8
20260507005401 54 180 5.2 13.9 0.00 0.27 0.27 56 1002.9
20260507004401 54 208 5.2 14.8 0.00 0.27 0.27 56 1003.0
20260507003402 55 227 5.2 14.8 0.00 0.27 0.27 56 1003.0
20260507002401 54 234 5.2 16.5 0.00 0.27 0.27 56 1003.0
20260507001842 54 159 5.2 16.5 0.00 0.27 0.27 56 1003.0
20260507000405 54 161 6.1 14.8 0.00 0.27 0.27 56 1003.1
20260506235402 54 173 6.1 12.2 0.00 0.27 0.27 56 1003.0
20260506234402 54 120 5.2 11.3 0.00 0.27 0.27 57 1003.3
20260506233401 54 223 5.2 13.0 0.00 0.27 0.27 57 1003.3
20260506233311 54 197 5.2 12.2 0.00 0.27 0.27 57 1003.4
20260506231403 54 200 4.3 11.3 0.01 0.28 0.27 58 1003.5
20260506231322 54 202 4.3 7.8 0.01 0.28 0.27 58 1003.6
20260506225402 54 177 4.3 10.4 0.02 0.28 0.27 58 1003.7
20260506224401 54 153 4.3 10.4 0.02 0.28 0.27 58 1003.8
20260506223401 54 191 4.3 9.6 0.03 0.28 0.27 58 1003.8
20260506222402 54 163 4.3 9.6 0.03 0.28 0.27 58 1004.0
20260506221401 54 236 4.3 8.7 0.03 0.27 0.26 58 1004.0
20260506220401 54 167 4.3 10.4 0.04 0.27 0.26 58 1004.2
20260506215402 54 188 3.5 10.4 0.04 0.26 0.25 59 1004.1
20260506214401 54 191 4.3 13.0 0.05 0.26 0.25 59 1004.3
20260506213401 54 202 6.1 13.0 0.05 0.25 0.24 59 1004.2
20260506212842 54 198 4.3 10.4 0.06 0.25 0.24 59 1004.2
20260506211403 54 228 4.3 10.4 0.06 0.24 0.23 60 1004.2
20260506210402 54 186 5.2 10.4 0.05 0.23 0.22 60 1004.1
20260506205401 54 145 4.3 12.2 0.05 0.22 0.21 61 1004.3
20260506204401 54 158 3.5 12.2 0.06 0.21 0.20 61 1004.3